Location: LDNL
(36.4545°S, 141.6685°E)
Time: 08:42:51
(UTC+11:00)

Courier 1B - Pass Details

Date: 13 February 2023
Orbit: 962 x 1209 km, 28.3° (Epoch: 21 March)

Event Time Altitude Azimuth Distance (km) Brightness Sun altitude
Rises 23:48:22 0° 284° (WNW) 3,732 10.8 -32.8°
Reaches altitude 10° 23:51:07 10° 290° (WNW) 2,813 10.0 -33.1°
Enters shadow 23:53:08 20° 299° (WNW) 2,189 9.3 -33.4°
